Home > Weather > Palm Springs > Past weeks

Flag for USA Past Weather in Palm Springs, California, USA — Yesterday and Last 2 Weeks

Now
107 °F

Sunny.


Feels Like: 106 °F
Forecast: 87 / 107 °F
Wind: 8 mph from East

Location: Palm Springs Regional Airport

Current Time: Jul 25, 2016 at 3:04:13 PM

Latest Report: Jul 25, 2016 at 1:53 PM


Visibility: 10 mi

Pressure: 29.80 "Hg

Humidity: 18%

Dew Point: 56 °F

Location of Palm SpringsLocation

Past Weather in Palm Springs — Graph

°F

Palm Springs Temperature Yesterday

Maximum temperature yesterday: 108 °F (at 4:53 PM)
Minimum temperature yesterday: 86 °F (at 6:53 AM)
Average temperature yesterday: 96 °F

High & Low Weather Summary for the Past Weeks

 TemperatureHumidityPressure
High116 °F (Jul 21, 2:53 PM)54% (Jul 25, 8:53 AM)29.94 "Hg (Jul 25, 8:53 AM)
Low76 °F (Jul 12, 4:53 AM)5% (Jul 16, 4:53 PM)29.64 "Hg (Jul 10, 5:53 PM)
Average96 °F21%29.80 "Hg
* Reported Jul 10 1:53 PM — Jul 25 1:53 PM, Palm Springs, Weather by CustomWeather, © 2016

Note: Actual official high and low records may vary slightly from our data, if they occured in-between our weather recording intervals... More about our weather records

Advertising

Palm Springs Weather History for the Previous 24 Hours

Scroll right to see more
 ConditionsComfort  
Time TempWeatherWind HumidityBarometerVisibility
1:53 PM
Mon, Jul 25
107 °FSunny.8 mph18%29.80 "Hg10 mi
12:53 PM103 °FSunny.No wind23%29.83 "Hg10 mi
11:53 AM99 °FSunny.5 mph28%29.87 "Hg10 mi
10:53 AM96 °FSunny.3 mph36%29.89 "Hg10 mi
9:53 AM92 °FSunny.6 mph49%29.91 "Hg10 mi
8:53 AM90 °FSunny.3 mph54%29.93 "Hg10 mi
7:53 AM89 °FSunny.3 mph26%29.92 "Hg10 mi
6:53 AM87 °FScattered clouds.No wind27%29.89 "Hg10 mi
5:53 AM87 °FClear.5 mph28%29.86 "Hg10 mi
4:53 AM89 °FClear.5 mph26%29.83 "Hg10 mi
3:53 AM89 °FClear.7 mph29%29.83 "Hg10 mi
2:53 AM89 °FClear.5 mph28%29.84 "Hg10 mi
1:53 AM90 °FClear.No wind25%29.84 "Hg10 mi
12:53 AM91 °FClear.6 mph26%29.83 "Hg10 mi
11:53 PM
Sun, Jul 24
93 °FClear.6 mph40%29.82 "Hg10 mi
10:53 PM94 °FClear.9 mph43%29.81 "Hg10 mi
9:53 PM95 °FClear.15 mph43%29.80 "Hg10 mi
8:53 PM102 °FClear.5 mph18%29.76 "Hg10 mi
7:53 PM104 °FSunny.13 mph18%29.74 "Hg10 mi
6:53 PM106 °FSunny.7 mph23%29.73 "Hg10 mi
5:53 PM107 °FSunny.10 mph24%29.72 "Hg10 mi
4:53 PM108 °FSunny.10 mph23%29.73 "Hg10 mi
3:53 PM106 °FSunny.6 mph26%29.75 "Hg10 mi
Weather by CustomWeather, © 2016

See weather overviewHow to use our weather pages